DW5225 Weather Reports


time (UTC)temp
C
wind
direction
speed
KPH
gust
KPH
rain 1hr
cm
rain 24hr
cm
rain mn
cm
humidity
%
barometer
mb
20190422184513 15 175 9.7 24.1 0.00 0.00 0.00 32 1002.6
20190422183012 15 175 8.0 27.4 0.00 0.00 0.00 32 1002.6
20190422181527 15 191 8.0 27.4 0.00 0.00 0.00 32 1002.7
20190422180013 16 195 9.7 24.1 0.00 0.00 0.00 32 1002.6
20190422174514 16 131 12.9 25.7 0.00 0.00 0.00 32 1002.6
20190422173007 16 160 8.0 24.1 0.00 0.00 0.00 32 1002.6
20190422171506 16 192 11.3 24.1 0.00 0.00 0.00 32 1002.7
20190422170011 17 150 14.5 29.0 0.00 0.00 0.00 31 1002.7
20190422164504 17 185 11.3 25.7 0.00 0.00 0.00 30 1002.8
20190422163003 17 181 17.7 30.6 0.00 0.00 0.00 29 1002.9
20190422161720 17 183 16.1 35.4 0.00 0.00 0.00 28 1003.0
20190422160308 18 184 17.7 35.4 0.00 0.00 0.00 27 1003.2
20190422154906 18 162 17.7 35.4 0.00 0.00 0.00 25 1003.3
20190422153211 18 185 16.1 33.8 0.00 0.00 0.00 23 1003.2
20190422151659 18 184 16.1 38.6 0.00 0.00 0.00 23 1003.2
20190422150146 18 182 14.5 33.8 0.00 0.00 0.00 23 1003.3
20190422144717 18 189 16.1 32.2 0.00 0.00 0.00 22 1003.4
20190422143214 18 179 14.5 35.4 0.00 0.00 0.00 22 1003.6
20190422141736 18 175 16.1 37.0 0.00 0.00 0.00 22 1003.7
20190422140136 19 189 17.7 33.8 0.00 0.00 0.00 21 1003.8
20190422134649 20 199 16.1 37.0 0.00 0.00 0.00 21 1003.9
20190422133208 20 149 14.5 30.6 0.00 0.00 0.00 22 1003.9
20190422131725 20 175 16.1 33.8 0.00 0.00 0.00 23 1004.1
20190422130108 20 177 9.7 25.7 0.00 0.00 0.00 24 1004.4
20190422124621 20 329 14.5 29.0 0.00 0.00 0.00 24 1004.6
20190422123106 20 159 16.1 27.4 0.00 0.00 0.00 23 1004.8
20190422121603 19 198 16.1 37.0 0.00 0.00 0.00 23 1005.1
20190422120209 18 198 9.7 22.5 0.00 0.00 0.00 24 1005.2
20190422114719 18 167 9.7 24.1 0.00 0.00 0.00 24 1005.4
20190422113058 18 168 11.3 27.4 0.00 0.00 0.00 22 1005.6
20190422111554 18 183 9.7 32.2 0.00 0.00 0.00 25 1005.9
20190422110106 18 154 12.9 32.2 0.00 0.00 0.00 24 1006.1
20190422104700 18 199 12.9 25.7 0.00 0.00 0.00 25 1006.3
20190422103054 18 204 11.3 32.2 0.00 0.00 0.00 26 1006.6
20190422101543 17 120 9.7 24.1 0.00 0.00 0.00 27 1007.0
20190422100106 17 162 9.7 24.1 0.00 0.00 0.00 28 1007.2
20190422094536 17 185 12.9 30.6 0.00 0.00 0.00 28 1007.4
20190422093016 16 155 12.9 30.6 0.00 0.00 0.00 31 1007.6
20190422090033 15 160 11.3 32.2 0.00 0.00 0.00 32 1008.2
20190422084523 15 154 11.3 27.4 0.00 0.00 0.00 33 1008.2
20190422083017 15 223 12.9 27.4 0.00 0.00 0.00 33 1008.3
20190422081508 15 194 9.7 29.0 0.00 0.00 0.00 34 1008.6
20190422080139 15 239 8.0 25.7 0.00 0.00 0.00 34 1008.8
20190422074701 14 138 12.9 29.0 0.00 0.00 0.00 35 1009.1
20190422073140 13 159 11.3 27.4 0.00 0.00 0.00 37 1009.3
20190422071635 13 148 9.7 25.7 0.00 0.00 0.00 39 1009.6
20190422070132 13 189 6.4 22.5 0.00 0.00 0.00 41 1009.7
20190422064649 12 161 8.0 24.1 0.00 0.00 0.00 43 1009.9
20190422063126 12 175 9.7 22.5 0.00 0.00 0.00 46 1010.0
20190422061610 11 191 8.0 20.9 0.00 0.00 0.00 49 1010.2
20190422060111 11 163 9.7 19.3 0.00 0.00 0.00 49 1010.5
20190422054630 11 201 9.7 22.5 0.00 0.00 0.00 50 1010.6
20190422053105 10 169 11.3 27.4 0.00 0.00 0.00 51 1010.8
20190422051608 10 144 11.3 24.1 0.00 0.00 0.00 51 1010.9
20190422050047 10 186 8.0 25.7 0.00 0.00 0.00 52 1011.0
20190422044526 10 183 9.7 20.9 0.00 0.00 0.00 51 1011.1
20190422043051 11 170 6.4 19.3 0.00 0.00 0.00 51 1011.1
20190422041523 11 179 9.7 19.3 0.00 0.00 0.00 51 1011.0
20190422040029 11 125 9.7 25.7 0.00 0.00 0.00 51 1011.1
20190422034524 11 195 11.3 29.0 0.00 0.00 0.00 51 1011.2
20190422033008 11 196 11.3 29.0 0.00 0.00 0.00 51 1011.1
20190422031507 11 133 9.7 25.7 0.00 0.00 0.00 50 1011.4
20190422030337 11 136 12.9 25.7 0.00 0.00 0.00 49 1011.5
20190422024651 11 196 6.4 27.4 0.00 0.00 0.00 49 1011.7
20190422023154 11 236 9.7 27.4 0.00 0.00 0.00 49 1011.8
20190422021651 11 152 9.7 24.1 0.00 0.00 0.00 49 1012.1
20190422020232 11 180 11.3 27.4 0.00 0.00 0.00 48 1012.3
20190422014630 11 162 8.0 25.7 0.00 0.00 0.00 48 1012.4
20190422013112 11 137 8.0 29.0 0.00 0.00 0.00 48 1012.6
20190422011614 12 154 8.0 24.1 0.00 0.00 0.00 47 1012.9
20190422010059 12 179 6.4 20.9 0.00 0.00 0.00 46 1013.1
20190422004610 12 195 9.7 25.7 0.00 0.00 0.00 46 1013.2
20190422003115 12 194 9.7 20.9 0.00 0.00 0.00 45 1013.2
20190422001557 12 173 8.0 20.9 0.00 0.00 0.00 44 1013.4
20190422000100 12 145 8.0 24.1 0.00 0.00 0.00 43 1013.5
20190421234623 12 138 8.0 17.7 0.00 0.00 0.00 43 1013.6
20190421233050 12 162 8.0 20.9 0.00 0.00 0.00 42 1013.6
20190421231559 12 181 6.4 20.9 0.00 0.00 0.00 42 1013.9
20190421230051 12 184 4.8 20.9 0.00 0.00 0.00 42 1013.8
20190421224540 12 110 8.0 22.5 0.00 0.00 0.00 41 1013.8
20190421223059 12 189 6.4 25.7 0.00 0.00 0.00 40 1013.8
20190421221616 12 160 4.8 19.3 0.00 0.00 0.00 40 1014.0
20190421220042 12 36 6.4 17.7 0.00 0.00 0.00 40 1014.1
20190421214525 12 196 3.2 16.1 0.00 0.00 0.00 40 1014.2
20190421213020 12 228 4.8 14.5 0.00 0.00 0.00 40 1014.3
20190421210128 12 168 3.2 17.7 0.00 0.00 0.00 40 1014.4
20190421204645 12 137 3.2 17.7 0.00 0.00 0.00 40 1014.5
20190421203214 13 179 6.4 17.7 0.00 0.00 0.00 39 1014.5
20190421201708 13 150 3.2 16.1 0.00 0.00 0.00 38 1014.4
20190421200252 13 129 4.8 16.1 0.00 0.00 0.00 38 1014.5
20190421194659 13 149 6.4 20.9 0.00 0.00 0.00 38 1014.5
20190421193203 13 194 6.4 19.3 0.00 0.00 0.00 37 1014.5
20190421191620 14 166 8.0 19.3 0.00 0.00 0.00 36 1014.4
20190421190057 15 203 8.0 17.7 0.00 0.00 0.00 34 1014.4